Weather History for Whiteville, NC

Change the Weather History Date:

Sunday, August 19, 2012

  Actual Average (KLBT) Record (KLBT)
Temperature  
Mean Temperature 79 °F 79 °F  
Max Temperature 87 °F 88 °F 97 °F (2007)
Min Temperature 71 °F 70 °F 67 °F (2008)
Degree Days  
Heating Degree Days 0 0  
Month to date heating degree days 0  
Since 1 June heating degree days 0  
Since 1 July heating degree days 0  
Cooling Degree Days 14 14  
Month to date cooling degree days 280  
Year to date cooling degree days 1418  
Since 1 June cooling degree days 1168  
Growing Degree Days 29 (Base 50)    
Moisture  
Dew Point 72 °F    
Average Humidity 89    
Maximum Humidity 100    
Minimum Humidity 58    
Precipitation  
Precipitation 0.16 in 0.18 in 2.06 in (2013)
Month to date precipitation 3.47  
Year to date precipitation 28.36  
Sea Level Pressure  
Sea Level Pressure 29.86 in    
Wind  
Wind Speed 1 mph (SW)    
Max Wind Speed 10 mph    
Max Gust Speed 18 mph    
Visibility 8 miles    
Events Fog , Rain    
T = Trace of Precipitation, MM = Missing Value Source: NWS Daily Summary

Daily Weather History Graph

Daily Weather History Graph

Search for Another Location

Airport:

Trip Planner

Search our weather history database for the weather conditions in past years. The results will help you decide how hot, cold, wet, or windy it might be!

Date:

Astronomy

Aug. 19, 2012 Rise Set
Actual Time 6:39 AM EDT 7:56 PM EDT
Civil Twilight 6:12 AM EDT 8:23 PM EDT
Nautical Twilight 5:41 AM EDT 8:54 PM EDT
Astronomical Twilight 5:08 AM EDT 9:26 PM EDT
Moon 8:42 AM EDT (8/19) 8:55 PM EDT (8/19)
Length of Visible Light 14h 10m
Length of Day
13h 17m
Waxing Crescent, 5% of the Moon is Illuminated
Aug 19
Waxing Crescent
Aug 24
First Quarter
Aug 31
Full
Sep 8
Last Quarter
Sep 15
New

Hourly Weather History & Observations

Time (EDT) Temp. Heat Index Dew Point Humidity Pressure Visibility Wind Dir Wind Speed Gust Speed Precip Events Conditions
12:15 AM 75.2 °F - 71.6 °F 89% 29.88 in 10.0 mi Calm Calm - N/A   Clear
12:55 AM 73.4 °F - 71.6 °F 94% 29.88 in 10.0 mi Calm Calm - N/A   Clear
1:15 AM 73.4 °F - 71.6 °F 94% 29.88 in 7.0 mi Calm Calm - N/A   Clear
1:35 AM 71.6 °F - 71.6 °F 100% 29.88 in 5.0 mi Calm Calm - N/A   Clear
1:55 AM 71.6 °F - 71.6 °F 100% 29.88 in 5.0 mi Calm Calm - N/A   Clear
2:15 AM 73.4 °F - 71.6 °F 94% 29.88 in 5.0 mi Calm Calm - N/A   Clear
2:35 AM 73.4 °F - 71.6 °F 94% 29.87 in 5.0 mi Calm Calm - N/A   Clear
2:55 AM 73.4 °F - 71.6 °F 94% 29.88 in 7.0 mi Calm Calm - N/A   Clear
3:15 AM 71.6 °F - 71.6 °F 100% 29.87 in 4.0 mi Calm Calm - N/A   Scattered Clouds
3:35 AM 71.6 °F - 71.6 °F 100% 29.87 in 4.0 mi Calm Calm - N/A   Clear
3:55 AM 71.6 °F - 69.8 °F 94% 29.87 in 3.0 mi Calm Calm - N/A   Mist
4:15 AM 71.6 °F - 71.6 °F 100% 29.87 in 7.0 mi Calm Calm - N/A   Scattered Clouds
4:35 AM 71.6 °F - 71.6 °F 100% 29.87 in 5.0 mi Calm Calm - N/A   Clear
4:55 AM 71.6 °F - 71.6 °F 100% 29.87 in 3.0 mi Calm Calm - N/A   Mist
5:15 AM 71.6 °F - 71.6 °F 100% 29.87 in 4.0 mi Calm Calm - N/A   Mostly Cloudy
5:35 AM 71.6 °F - 71.6 °F 100% 29.86 in 5.0 mi Calm Calm - N/A   Scattered Clouds
5:55 AM 71.6 °F - 71.6 °F 100% 29.86 in 4.0 mi Calm Calm - N/A   Clear
6:15 AM 71.6 °F - 71.6 °F 100% 29.87 in 4.0 mi Calm Calm - N/A   Clear
6:35 AM 71.6 °F - 71.6 °F 100% 29.87 in 5.0 mi Calm Calm - N/A   Clear
6:55 AM 71.6 °F - 71.6 °F 100% 29.87 in 2.0 mi Calm Calm - N/A   Mist
7:15 AM 71.6 °F - 71.6 °F 100% 29.87 in 1.5 mi Calm Calm - N/A   Mist
7:35 AM 71.6 °F - 71.6 °F 100% 29.87 in 3.0 mi Calm Calm - N/A   Mist
7:55 AM 73.4 °F - 73.4 °F 100% 29.88 in 4.0 mi Calm Calm - N/A   Overcast
8:15 AM 73.4 °F - 73.4 °F 100% 29.88 in 4.0 mi Calm Calm - N/A   Overcast
8:35 AM 75.2 °F - 73.4 °F 94% 29.88 in 0.8 mi Calm Calm - N/A   Overcast
8:55 AM 75.2 °F - 73.4 °F 94% 29.88 in 0.2 mi Calm Calm - N/A Fog Fog
9:35 AM 77.0 °F - 75.2 °F 94% 29.87 in 4.0 mi Calm Calm - N/A   Overcast
9:55 AM 78.8 °F - 75.2 °F 89% 29.87 in 7.0 mi SSE 3.5 mph - N/A   Scattered Clouds
10:15 AM 80.6 °F 86.2 °F 75.2 °F 84% 29.87 in 7.0 mi SSE 3.5 mph - N/A   Clear
10:35 AM 80.6 °F 86.2 °F 75.2 °F 84% 29.88 in 7.0 mi SE 4.6 mph - N/A   Clear
10:55 AM 82.4 °F 90.9 °F 77.0 °F 84% 29.87 in 7.0 mi Calm Calm - N/A   Clear
11:15 AM 82.4 °F 89.5 °F 75.2 °F 79% 29.86 in 10.0 mi South 5.8 mph - N/A   Clear
11:35 AM 86.0 °F 93.4 °F 73.4 °F 66% 29.85 in 10.0 mi SSW 9.2 mph - N/A   Clear
11:55 AM 86.0 °F 91.8 °F 71.6 °F 62% 29.85 in 10.0 mi SSW 10.4 mph - N/A   Clear
12:15 PM 87.8 °F 93.8 °F 71.6 °F 58% 29.84 in 10.0 mi SW 5.8 mph - N/A   Clear
12:35 PM 87.8 °F 93.8 °F 71.6 °F 58% 29.83 in 10.0 mi SW 6.9 mph 18.4 mph N/A   Scattered Clouds
12:55 PM 86.0 °F 91.8 °F 71.6 °F 62% 29.84 in 10.0 mi WNW 6.9 mph - N/A   Mostly Cloudy
1:15 PM 75.2 °F - 69.8 °F 83% 29.87 in 10.0 mi WNW 8.1 mph - 0.01 in Rain Light Rain
1:35 PM 71.6 °F - 71.6 °F 100% 29.86 in 5.0 mi West 4.6 mph - 0.14 in Rain Rain
2:15 PM 71.6 °F - 71.6 °F 100% 29.87 in 7.0 mi Calm Calm - 0.02 in Rain Light Rain
2:35 PM 71.6 °F - 71.6 °F 100% 29.87 in 10.0 mi Calm Calm - 0.02 in Rain Light Rain
2:55 PM 73.4 °F - 71.6 °F 94% 29.88 in 10.0 mi Calm Calm - 0.02 in Rain Rain
3:15 PM 73.4 °F - 71.6 °F 94% 29.86 in 10.0 mi Calm Calm - N/A   Light Drizzle
3:35 PM 75.2 °F - 71.6 °F 89% 29.85 in 10.0 mi Calm Calm - N/A   Overcast
3:55 PM 77.0 °F - 71.6 °F 83% 29.84 in 10.0 mi South 3.5 mph - N/A   Scattered Clouds
4:15 PM 77.0 °F - 69.8 °F 78% 29.82 in 10.0 mi Calm Calm - N/A   Clear
4:35 PM 77.0 °F - 71.6 °F 83% 29.83 in 10.0 mi Calm Calm - N/A   Clear
4:55 PM 77.0 °F - 71.6 °F 83% 29.83 in 10.0 mi Calm Calm - N/A Rain Light Rain
5:15 PM 77.0 °F - 73.4 °F 89% 29.83 in 10.0 mi Calm Calm - N/A Rain Light Rain
5:35 PM 78.8 °F - 71.6 °F 78% 29.83 in 10.0 mi SW 4.6 mph - N/A   Scattered Clouds
5:55 PM 78.8 °F - 71.6 °F 78% 29.83 in 10.0 mi SW 3.5 mph - N/A   Scattered Clouds
6:15 PM 78.8 °F - 71.6 °F 78% 29.84 in 10.0 mi West 3.5 mph - N/A   Mostly Cloudy
6:35 PM 78.8 °F - 71.6 °F 78% 29.84 in 10.0 mi WSW 3.5 mph - N/A   Scattered Clouds
6:55 PM 78.8 °F - 71.6 °F 78% 29.83 in 10.0 mi Calm Calm - N/A   Clear
7:15 PM 78.8 °F - 71.6 °F 78% 29.82 in 10.0 mi Calm Calm - N/A   Clear
7:35 PM 77.0 °F - 71.6 °F 83% 29.83 in 10.0 mi Calm Calm - N/A   Clear
7:55 PM 77.0 °F - 71.6 °F 83% 29.84 in 10.0 mi Calm Calm - N/A   Clear
8:15 PM 73.4 °F - 71.6 °F 94% 29.84 in 10.0 mi Calm Calm - N/A   Clear
8:35 PM 75.2 °F - 71.6 °F 89% 29.85 in 10.0 mi Calm Calm - N/A   Clear
8:55 PM 75.2 °F - 71.6 °F 89% 29.86 in 10.0 mi Calm Calm - N/A   Clear
9:15 PM 75.2 °F - 71.6 °F 89% 29.86 in 10.0 mi Calm Calm - N/A   Clear
9:35 PM 75.2 °F - 71.6 °F 89% 29.87 in 10.0 mi Calm Calm - N/A   Scattered Clouds
9:55 PM 75.2 °F - 71.6 °F 89% 29.88 in 10.0 mi Calm Calm - N/A   Scattered Clouds
10:15 PM 75.2 °F - 71.6 °F 89% 29.88 in 10.0 mi SSW 3.5 mph - N/A   Mostly Cloudy
10:35 PM 75.2 °F - 71.6 °F 89% 29.88 in 10.0 mi Calm Calm - N/A Rain Rain
10:55 PM 73.4 °F - 71.6 °F 94% 29.88 in 10.0 mi SW 3.5 mph - N/A   Scattered Clouds
11:15 PM 73.4 °F - 71.6 °F 94% 29.88 in 10.0 mi SW 3.5 mph - N/A   Scattered Clouds
11:35 PM 73.4 °F - 71.6 °F 94% 29.88 in 10.0 mi Calm Calm - N/A   Scattered Clouds
11:55 PM 73.4 °F - 71.6 °F 94% 29.88 in 10.0 mi SW 3.5 mph - N/A   Clear